Terminal Aerodrome Forecast
Issued by NWS

Home | Current Version | Previous Version | Text Only | Print | Product List | Glossary On
Versions: 1 2 3 4 5 6 7 8 9 10 11 12 13 14 15 16 17 18 19 20 21 22 23 24 25 26 27 28 29 30 31 32 33 34 35 36 37 38 39
000
FTUS45 KPSR 030248 AAB
TAFPHX
TAF AMD
KPHX 030248Z 0303/0324 36008KT P6SM FEW100 SCT140 BKN220
     FM030400 VRB06KT P6SM FEW100 SCT140 BKN220
     FM030700 14008KT P6SM FEW100 BKN150 OVC250
     FM030900 10006KT P6SM VCSH SCT120 BKN250
     FM031400 12007KT P6SM FEW120 SCT250
     FM032300 20007KT P6SM VCTS SCT100CB BKN200=

USA.gov is the U.S. government's official web portal to all federal, state and local government web resources and services.